Theta_e
361 362 362 363 361 359 358 358 358 358 357 357 356 355 354 352 350 349 349 348 345 344 345 343 342 341 340 340 340 340 340 339 339 339 338 339 339 338 337 337 337 336
362 363 363 363 362 360 358 358 358 358 357 357 357 355 353 351 349 349 349 348 346 344 345 344 342 342 342 342 340 339 340 340 339 339 338 339 339 338 338 337 336 336
363 364 363 363 363 361 358 358 358 358 357 356 356 355 353 351 349 349 349 348 346 345 346 345 343 342 343 341 340 339 340 340 339 338 338 338 338 338 338 337 336 335
364 364 363 362 363 361 359 358 358 358 358 356 356 355 353 352 349 348 348 347 347 346 346 345 344 343 342 341 339 339 339 340 339 337 337 338 337 337 338 337 337 336
364 364 364 362 362 360 360 359 359 359 358 357 356 355 353 352 351 348 347 347 347 346 345 345 345 344 342 340 340 339 339 340 339 337 337 337 337 337 338 337 337 337
365 365 364 362 361 360 360 360 359 358 358 357 356 355 354 353 351 350 348 347 347 347 345 344 344 343 342 341 341 340 340 341 340 338 338 337 337 337 337 337 336 336
366 366 365 363 361 360 361 360 359 358 358 357 355 355 355 354 352 351 349 348 347 346 345 344 344 343 342 341 341 341 341 340 339 339 338 337 337 337 337 337 336 336
367 367 366 364 362 361 361 361 360 359 358 356 355 355 355 354 353 351 349 348 347 345 344 344 343 343 343 342 341 341 341 340 339 339 338 337 336 337 337 337 336 335
367 368 367 365 364 362 361 361 361 360 359 357 356 355 355 355 353 351 349 348 346 344 343 344 343 343 343 342 341 341 341 341 340 340 340 338 337 337 338 337 336 336
367 369 368 366 365 363 362 361 361 361 359 358 356 355 357 356 354 352 349 348 346 343 342 344 344 343 343 343 342 341 341 341 340 340 339 339 338 338 338 338 337 336
367 369 369 368 366 364 363 362 362 363 361 359 357 356 357 357 354 352 350 348 345 342 342 344 344 343 343 343 342 342 341 340 340 340 339 339 339 338 338 338 337 337
367 367 369 369 367 364 362 362 362 362 362 361 358 357 358 357 355 351 349 348 345 343 342 343 344 344 344 343 343 342 341 340 341 341 341 340 339 338 338 338 338 337
367 365 367 368 367 365 363 362 362 361 362 362 360 359 359 357 355 352 349 347 345 344 342 342 343 344 344 343 343 343 341 340 340 341 341 341 340 339 338 338 337 337
367 365 365 366 367 365 362 362 361 359 359 361 361 360 359 357 355 353 349 347 346 344 343 343 344 344 344 343 343 343 342 340 340 341 341 340 340 339 338 337 337 337
367 365 364 365 366 365 363 362 361 359 357 359 361 360 358 356 355 353 350 348 346 344 344 344 343 343 343 343 343 343 341 339 339 341 341 340 339 339 338 337 337 337
368 367 365 365 366 365 364 362 361 359 357 358 360 360 358 356 355 353 350 349 347 346 346 345 343 342 342 342 342 341 339 338 339 340 341 340 339 339 338 337 337 337
369 368 367 367 366 366 364 362 361 359 358 358 359 359 357 355 355 353 350 349 350 348 345 344 343 343 342 340 338 337 336 337 339 340 341 340 339 339 338 338 338 337
370 370 370 369 368 367 365 363 362 361 360 359 358 358 357 355 354 353 350 350 351 348 343 343 345 344 341 337 334 333 334 337 339 341 342 341 340 339 339 339 339 338
371 373 373 371 370 368 366 365 363 362 362 360 359 357 357 356 354 352 350 351 351 348 345 346 346 344 340 336 332 331 334 336 338 340 341 341 340 340 339 340 339 338
373 374 374 373 372 369 367 366 364 364 363 362 360 358 356 356 354 351 351 351 350 349 348 346 344 341 339 334 329 330 333 335 337 340 341 340 340 340 340 339 338 339
374 374 373 373 372 369 368 367 365 365 363 360 360 357 355 354 353 351 351 350 349 348 347 345 342 339 337 333 328 328 329 329 335 341 341 339 339 338 337 337 338 338
375 374 373 372 370 369 368 366 365 364 362 361 359 357 356 355 354 352 351 349 348 347 345 343 339 337 336 333 328 327 325 325 331 339 341 339 337 337 336 337 338 337
375 374 372 370 368 367 366 364 364 363 361 360 358 356 356 356 355 353 351 349 347 345 343 341 338 335 335 332 329 328 327 326 329 335 339 338 336 336 337 337 337 337
373 373 371 368 367 365 363 362 361 361 360 359 357 356 355 355 354 353 351 349 347 344 343 340 338 336 335 333 332 332 332 331 330 332 336 336 335 336 337 337 338 339
372 371 370 367 365 363 361 360 359 358 358 358 356 355 354 353 352 351 350 348 346 343 342 340 339 338 335 334 335 335 336 335 332 333 334 335 336 337 338 339 340 340
370 370 369 366 364 362 360 359 357 356 356 355 355 354 353 352 351 350 348 346 345 344 342 340 340 339 337 336 337 337 337 336 335 334 335 336 338 338 338 338 338 337
Wind_Speed
27 26 26 24 23 22 21 21 21 21 20 20 21 19 19 19 17 18 18 16 16 15 12 13 14 13 13 12 11 10 9 11 11 11 11 9 8 8 7 6 5 4
28 27 26 25 24 24 23 22 23 22 21 21 21 19 19 19 18 19 20 19 19 17 15 15 16 16 15 14 15 14 12 12 12 11 11 10 9 8 8 8 8 7
29 28 27 26 25 25 24 23 23 24 23 22 21 21 21 21 20 20 21 21 21 19 17 17 17 18 17 17 18 17 15 15 14 12 11 11 10 9 9 10 10 9
31 29 29 27 27 27 25 24 24 24 24 24 23 23 22 22 22 22 21 22 21 20 19 19 19 20 20 19 19 18 17 16 16 15 12 11 12 11 10 9 7 7
32 30 30 29 27 27 27 26 26 26 25 25 25 24 24 23 24 24 24 23 23 21 21 21 21 21 21 20 19 19 18 17 17 16 13 12 12 11 11 10 8 7
32 31 31 30 29 28 28 28 28 28 27 26 26 26 25 26 26 26 26 26 25 23 23 23 23 22 22 22 20 20 19 18 18 18 16 14 14 13 12 12 11 11
32 32 32 31 30 29 29 30 30 29 28 28 28 28 27 28 28 28 28 28 26 25 25 26 25 24 23 23 22 21 20 19 19 19 19 18 17 15 15 14 12 12
32 32 33 32 31 30 30 31 31 30 30 29 29 30 30 29 30 30 30 30 29 28 27 28 28 27 25 25 24 23 21 20 20 21 22 22 21 20 18 16 14 13
33 32 33 32 31 31 31 31 31 31 32 32 31 31 31 31 32 32 32 32 31 30 30 30 30 29 27 26 26 25 24 23 23 22 22 24 24 22 20 18 16 15
34 33 33 33 32 32 32 32 31 31 33 34 32 29 31 33 33 33 33 34 33 33 33 32 32 31 29 28 28 27 27 25 25 24 23 22 22 21 20 19 18 17
35 33 33 34 33 32 33 33 31 31 32 34 32 30 31 33 34 33 34 35 35 35 35 34 33 33 31 29 28 29 29 27 25 24 23 23 22 21 20 20 19 18
36 35 35 35 35 33 33 33 33 31 31 33 33 32 31 32 35 35 35 36 37 36 36 36 34 33 33 30 28 28 29 28 26 25 23 23 23 22 21 20 20 19
37 38 37 36 36 35 34 34 34 32 31 32 33 32 31 31 33 36 37 37 37 36 36 36 35 34 34 32 29 28 29 28 27 26 24 23 22 22 21 20 19 19
38 39 39 38 37 35 34 33 34 33 32 33 33 32 31 30 31 34 36 37 37 37 36 36 35 34 34 33 31 29 29 29 28 27 26 24 23 22 21 21 20 19
38 38 39 39 36 35 35 35 34 34 33 33 33 32 31 30 30 32 34 35 36 36 34 35 35 34 34 35 34 31 30 29 28 27 26 25 24 22 22 21 20 20
37 36 36 36 35 36 37 36 35 34 33 33 34 33 31 29 29 31 32 33 34 34 34 34 34 34 35 36 36 34 31 29 29 28 26 25 24 23 23 22 21 20
36 35 34 34 34 35 37 36 35 33 32 31 31 32 32 30 29 30 31 30 31 33 34 33 32 33 35 37 36 35 31 29 28 27 27 26 25 24 23 22 22 21
36 34 32 32 33 33 34 34 33 31 29 28 27 28 30 30 28 30 30 28 27 30 32 33 31 32 35 38 37 34 31 29 27 26 26 26 25 24 23 22 21 20
34 32 30 30 30 30 30 29 29 28 26 24 23 23 26 28 27 28 29 28 26 27 29 30 30 32 36 37 36 34 32 29 27 25 25 25 24 24 23 22 21 20
32 30 28 27 27 26 26 26 25 25 24 22 21 22 24 25 25 25 27 27 27 28 29 28 28 31 35 36 37 36 34 31 28 25 23 24 25 25 25 23 22 22
29 28 26 25 24 24 24 24 23 23 23 21 21 23 24 24 23 24 25 28 28 27 28 27 25 28 32 35 36 36 34 33 31 27 23 22 22 24 25 23 23 25
28 27 25 25 24 23 23 23 22 22 23 22 21 21 21 21 21 22 24 26 26 25 26 26 24 24 28 31 34 36 34 33 34 32 27 23 20 20 22 21 21 23
27 26 26 25 24 23 21 21 22 21 22 23 21 19 19 18 18 19 19 21 23 24 25 24 22 23 26 29 33 34 32 31 34 33 30 27 24 21 21 21 21 22
27 26 26 25 24 23 21 20 21 21 20 20 20 19 18 18 18 18 18 18 18 20 22 23 22 24 27 28 28 28 27 28 31 31 29 29 28 25 25 25 24 23
27 27 27 25 24 23 22 20 20 19 19 19 19 18 18 17 18 18 17 16 16 17 19 21 22 23 26 26 24 24 24 26 29 29 27 28 28 27 27 24 20 19
26 26 26 25 24 24 22 20 19 18 18 18 17 16 15 14 14 15 15 15 15 16 18 21 20 20 24 25 24 25 25 26 28 27 26 27 25 23 22 19 14 14
Wind_Direction
192 193 192 190 188 187 186 184 184 188 186 184 184 185 187 187 186 188 187 186 191 195 194 189 187 187 189 193 195 186 170 175 187 190 191 195 201 207 206 205 226 245
193 193 192 190 189 188 187 186 186 189 190 188 187 187 189 189 187 191 192 191 190 192 194 193 190 190 189 190 193 191 184 185 191 190 189 196 205 209 206 209 213 212
193 193 192 191 191 189 187 187 188 190 192 190 189 190 190 190 190 192 191 188 187 189 193 194 192 192 192 193 193 191 189 189 189 190 192 197 208 217 217 220 219 212
193 193 193 192 193 191 187 187 189 192 193 193 194 192 190 192 192 193 191 187 187 190 193 194 194 194 194 195 195 191 191 191 191 194 197 198 207 220 228 233 231 223
193 193 193 194 193 190 187 188 191 194 193 194 196 194 194 194 193 193 193 192 191 192 193 194 195 197 196 196 195 192 192 194 195 195 198 199 202 212 225 234 232 227
193 193 194 195 194 190 188 190 194 195 194 195 197 196 196 196 194 193 194 194 192 192 192 193 195 198 198 197 196 196 194 195 196 196 198 201 204 210 221 227 224 222
192 193 194 195 195 191 189 193 197 197 196 197 197 196 197 197 195 194 195 194 192 191 192 193 195 197 198 198 199 199 199 199 199 200 200 199 201 208 216 221 219 216
191 192 195 195 194 192 192 195 198 197 197 198 198 198 198 197 196 196 196 194 192 192 193 194 195 196 196 198 199 200 201 202 204 206 204 200 200 203 209 217 221 219
190 191 194 195 194 193 194 196 198 198 199 200 199 199 199 199 198 197 196 195 193 193 194 195 196 196 195 198 199 200 202 204 207 209 206 201 199 201 204 209 216 218
189 190 192 194 194 194 195 197 198 198 200 202 201 200 199 199 199 198 197 195 193 194 195 195 196 196 196 198 199 201 203 206 210 213 213 209 205 203 203 206 211 214
188 190 192 194 195 194 195 197 198 197 199 201 202 201 199 199 199 199 197 196 195 195 195 195 196 196 196 197 200 202 204 206 210 214 217 217 214 210 208 208 211 213
189 191 194 196 196 196 196 197 199 199 198 199 201 201 199 197 198 199 199 198 197 197 196 196 196 196 196 197 199 203 205 206 209 212 214 214 214 212 211 211 212 213
191 193 195 198 198 197 197 198 200 201 199 198 199 199 197 197 198 199 200 200 199 198 198 197 195 196 197 198 199 202 205 206 208 212 213 212 213 214 214 213 213 215
193 196 197 199 199 198 198 200 201 203 203 200 198 199 199 198 198 199 201 201 200 200 199 197 196 195 196 198 199 202 204 205 207 210 213 213 214 216 216 214 213 215
195 198 199 200 199 198 199 201 203 204 205 201 199 199 201 201 199 198 199 200 200 200 199 198 197 196 197 198 199 200 203 205 206 208 210 211 214 216 216 215 213 214
196 198 200 200 198 198 200 202 203 205 205 203 200 200 201 203 201 198 198 199 200 199 198 197 198 200 200 200 200 200 202 203 204 207 209 210 212 214 216 215 214 215
194 197 199 200 199 200 202 203 204 205 205 204 201 201 202 204 202 198 196 198 198 197 197 198 201 203 202 204 204 203 201 200 202 205 207 210 212 213 214 216 215 215
193 195 196 198 199 201 202 203 204 206 206 206 204 203 202 202 203 199 195 195 197 197 197 200 203 204 206 207 207 205 203 201 202 205 207 210 213 214 215 217 217 217
190 191 192 195 197 199 200 201 203 204 206 207 208 206 201 201 202 199 194 195 197 198 199 201 203 206 208 208 206 207 205 202 204 209 210 211 213 215 216 215 216 219
185 186 188 190 191 193 194 195 198 201 202 204 205 203 200 199 200 198 197 198 201 202 203 203 204 207 209 208 207 209 207 204 206 210 213 215 215 215 217 215 214 215
179 180 181 181 182 183 185 188 192 194 195 196 199 200 199 198 198 198 199 202 204 204 204 204 205 207 209 210 210 211 211 209 209 210 216 221 218 216 219 216 210 209
171 171 171 171 171 174 178 183 186 188 191 194 196 197 196 194 196 198 202 204 204 205 205 205 205 204 207 211 213 213 213 213 213 216 221 226 227 226 225 217 207 207
164 162 163 165 167 170 175 180 184 186 190 193 193 191 190 190 192 198 204 207 206 208 208 206 205 205 208 213 215 214 213 214 216 219 223 229 234 235 232 224 215 213
165 163 165 168 170 174 176 180 186 190 190 190 189 192 197 199 199 203 208 207 206 208 208 206 206 207 208 210 212 211 210 213 216 218 223 229 234 236 235 229 217 211
168 169 170 171 172 175 176 177 182 187 188 189 192 198 205 204 201 202 204 204 207 211 210 208 209 208 207 208 209 207 207 211 213 214 218 225 230 232 230 223 210 199
169 170 171 170 170 172 173 173 174 177 181 185 189 197 204 203 197 196 198 199 205 213 213 212 213 211 205 204 207 206 206 210 211 211 216 222 225 227 225 219 204 188